Terminal Aerodrome Forecast
Issued by NWS Chicago, IL

Home | Current Version | Previous Version | Text Only | Print | Product List | Glossary Off
Versions: 1 2 3 4 5 6 7 8 9 10 11 12 13 14 15 16 17 18 19 20 21 22 23 24 25

792
FTUS43 KLOT 090907 AAA
TAFRFD
TAF AMD
KRFD 090907Z 0909/1006 33014G21KT P6SM -SN SCT020 OVC030
      TEMPO 0909/0912 2SM -SN BKN020
     FM091200 33015G22KT P6SM -SHSN SCT020 OVC040
     FM100200 33015G22KT P6SM SCT025 OVC050=

USA.gov is the U.S. government's official web portal to all federal, state and local government web resources and services.